Jackpot

Texas Poker Multi Jackpot System

Kini Telah hadir Jackpot SUPER ROYAL FLUSH

Kini Telah hadir Jackpot 2000 (khusus table VIP keatas).

Ikutilah global jackpot yang tersedia di system kami, dengan system jackpot terbaru dan pertama di indonesia, anda dapat membeli jackpot dengan harga 100 rupiah saja dan menangkan hadiahnya hingga puluhan juta rupiah.

Jackpot bukanlah suatu keharusan untuk dibeli, namun kami memberikan suatu fitur tambahan untuk member tercinta dari www.nuansapoker.com.

Terdapat tiga pilihan harga jackpot yang bisa anda beli yaitu :100,500,1000 dan 2000(khusus table VIP Keatas) rupiah.

Hadiah dari Multi jackpot system www.nuansapoker.com

  1. full house x 10 harga jackpot yang anda beli.
      (contoh:anda membeli 1000 maka:1000 X10 = 10.000)
  2. four of kind x 250 harga jackpot yang anda beli
      (contoh:anda membeli 1000 maka:1000 X250 = 250.000)
  3. Straight flush x 1200
      (contoh:anda membeli 1000 maka:1000 X1200 = 1.200.000)
  4. Royal flush x 10000 harga jackpot yang anda beli
      (contoh:anda membeli 1000 maka:1000 X10000 = 10.000.000)
  5. SUPER ROYAL FLUSH x 30000 harga jackpot yang anda beli
      (contoh:anda membeli 1000 maka:1000 X30000 = 30.000.000)

Kondisi kartu

  1. full house adalah kondisi kartu dimana kartu anda dan kartu tengah dengan total 7 kartu bisa mendapatkan nilai 5 kartu dengan kombinasi 1 tris(three of kind) dan 1 pair, contoh 3 kartu 10 dan 2 kartu 5
  2. Four of kind adalah kondisi kartu dimana kartu anda dan kartu tengah dengan total 7 kartu bisa mendapatkan nilai 5 kartu dengan kombinasi 4 kartu yang sama jumlah dan 1 kartu apapun juga contoh anda mendapatkan 4 buah kartu angka 3 dan 1 kartu apapun.
  3. Staright flush adalah kondisi kartu dimana kartu anda dan kartu tengah dengan total 7 kartu bisa mendapatkan nilai 5 kartu dengan kombinasi seri / staright dengan kembang yang sama contoh : urutan kartu dari angka 5, 6, 7, 8 , 9 10 dengan kembang yg sama misalnya as hati
  4. Royal flush adalah kondisi kartu dimana kartu anda dan kartu tengah dengan total 7 kartu bisa mendapatkan nilai 5 kartu dengan kombinasi seri / staright dengan kembang yang sama tetapi kartu tersebut haruslah dimulai dari 10. contoh 10, Queen, Jack, King dan aces dengan kembang yang sama
  5. Super Royal flush adalah kondisi kartu dimana Kedua kartu anda digabung dengan 3 kartu pertama meja haruslah royal flush. contoh kartu anda 10,Queen kembang sama dan 3 kartu pertama meja adalah Jack, King dan aces dengan kembang yang sama

Demikian adalah penjelasan dari Multi Jackpot www.nuansapoker.com terima kasih dan selamat bermain salam hoki dari kami

Texas Poker Jackpot Winner

TOP SUPER ROYAL FLUSH
No.TanggalNamaPriceWin
123/06 10:46M1L3Y888Super Royal flush6,000,000
223/06 04:48MHYUSRIYSFSuper Royal flush3,000,000
323/06 04:24ELANK76Super Royal flush3,000,000
423/06 04:23JOKIKU22Super Royal flush6,000,000
523/06 03:11AAAABGGL63Super Royal flush15,000,000
TOP ROYAL FLUSH
No.TanggalNamaPriceWin
123/06 11:32JANDA1JUTARoyal flush2,000,000
223/06 11:30AFYG9797Royal flush2,000,000
323/06 11:13INDAH2323Royal flush2,000,000
423/06 11:05ANGELIK4Royal flush1,000,000
523/06 10:58XIOMY99Royal flush20,000,000
TOP STRAIGHT FLUSH
No.TanggalNamaPriceWin
123/06 11:35B40IVHAND91Straight Flush2,400,000
223/06 11:34DROGBA889Straight Flush120,000
323/06 11:34ROYALBCAStraight Flush600,000
423/06 11:33JHAAA111Straight Flush600,000
523/06 11:32WKASStraight Flush240,000
LATEST JACKPOT
No.TanggalNamaPriceWin
123/06 11:36RAJAJP_NAFull House2,000
223/06 11:36CHE1DP8XIIFull House5,000
323/06 11:36ZNEWLJ3ZIBFull House2,000
423/06 11:36IONG777Full House1,000
523/06 11:36ESTESTFull House5,000
623/06 11:36DWBT190299Full House2,000
723/06 11:36KAZUKIYUKIFull House20,000
823/06 11:36JOMBLAN9Full House10,000
923/06 11:36KONTEK44Full House1,000
1023/06 11:36NOVALDI12Full House5,000
1123/06 11:36LAUKTEMPEFour Of A Kind25,000
1223/06 11:36NAGAPUSPA9Full House2,000
1323/06 11:36DU1T_H4R4MFull House5,000
1423/06 11:36D0CA8D53Full House5,000
1523/06 11:36SEKOP_4SFull House10,000
1623/06 11:36VERIEVERIEFull House2,000
1723/06 11:36SEMYJALUFull House1,000
1823/06 11:36TROEMKAHFull House5,000
1923/06 11:36B85GANAS21Full House2,000
2023/06 11:36ASRUL21051Full House10,000
2123/06 11:36RIQOFull House5,000
2223/06 11:36BULFIGHTFull House5,000
2323/06 11:36BGAP3K89Full House2,000
2423/06 11:36DN4DANGLERFull House5,000
2523/06 11:36GENDUL009Full House5,000
2623/06 11:36JIN405Four Of A Kind25,000
2723/06 11:36MUK4HOK1Full House2,000
2823/06 11:36AB6060Full House2,000
2923/06 11:36Z12345678ZFull House2,000
3023/06 11:36PEREZZZ888Full House5,000
3123/06 11:36C4PRIFull House500
3223/06 11:36BEJOK90Full House5,000
3323/06 11:36SAYA1234Full House2,000
3423/06 11:36C2091F79Full House5,000
3523/06 11:36KECINTAANFull House5,000
3623/06 11:36CEKRI888Full House2,000
3723/06 11:36IZ241312Full House20,000
3823/06 11:36RATIH150Four Of A Kind50,000
3923/06 11:35ARISS88Full House10,000
4023/06 11:35JAYU99Full House10,000
4123/06 11:35BEDEKFull House5,000
4223/06 11:35SVCYCNLZ01Full House5,000
4323/06 11:35ARIES808Full House5,000
4423/06 11:35DALEHFull House5,000
4523/06 11:35KNTLUDNFull House1,000
4623/06 11:35MAMI0860Full House20,000
4723/06 11:35PLASAH83Full House10,000
4823/06 11:35PERBUSAFull House5,000
4923/06 11:35B40IVHAND91Straight Flush2,400,000
5023/06 11:35YEZIIFull House20,000

Domino Multi Jackpot System

Ikutilah global jackpot yang tersedia di system kami, dengan system jackpot terbaru dan pertama di indonesia, anda dapat membeli jackpot dengan harga 100 rupiah saja dan menangkan hadiahnya hingga puluhan juta rupiah.

Jackpot bukanlah suatu keharusan untuk dibeli, namun kami memberikan suatu fitur tambahan untuk member tercinta dari www.nuansapoker.com.

Terdapat tiga pilihan harga jackpot yang bisa anda beli yaitu :100,500 dan 1000 rupiah.

Hadiah dari Multi jackpot system www.nuansapoker.com

  1. Murni Kecil x 50 harga jackpot yang anda beli.
      (contoh:anda membeli 1000 maka:1000 X 50 = 50.000)
  2. Murni Besar x 50 harga jackpot yang anda beli
      (contoh:anda membeli 1000 maka:1000 X 50 = 50.000)
  3. BALAK x 100 harga jackpot yang anda beli
      (contoh:anda membeli 1000 maka:1000 X 100 = 100.000)
  4. ENAM DEWA x 6666 harga jackpot yang anda beli
      (contoh:anda membeli 1000 maka:1000 X 6666 = 6.666.000)

Demikian adalah penjelasan dari Multi Jackpot www.nuansapoker.com terima kasih dan selamat bermain salam hoki dari kami

Domino Jackpot Winner

TOP ENAM DEWA
No.TanggalNamaPriceWin
123/06 11:27ALUMPAS001murni enam3,333,000
223/06 08:07MEHPER15murni enam6,666,000
323/06 06:12PLANGON123murni enam666,600
423/06 02:08WALIPITUEmurni enam6,666,000
523/06 01:53IAN38INTImurni enam6,666,000
TOP BALAK
No.TanggalNamaPriceWin
123/06 11:36FEY10balak100,000
223/06 11:35TSALAMA71balak50,000
323/06 11:33KOPPIbalak10,000
423/06 11:32T61N0YFZNBbalak10,000
523/06 11:29MERCURIA7balak100,000
LATEST JACKPOT
No.TanggalNamaPriceWin
123/06 11:36COCOTE_9murni besar50,000
223/06 11:36FEY10balak100,000
323/06 11:35TSALAMA71balak50,000
423/06 11:34SNOW_ICEmurni kecil5,000
523/06 11:33KOPPIbalak10,000
623/06 11:32HASIL86_murni besar50,000
723/06 11:32T61N0YFZNBbalak10,000
823/06 11:32UCO87murni kecil5,000
923/06 11:32DWBT233murni kecil25,000
1023/06 11:32LANI234murni besar25,000
1123/06 11:31BOIM76murni kecil50,000
1223/06 11:31STUGERmurni kecil50,000
1323/06 11:30AJEPTHEAmurni kecil50,000
1423/06 11:30PO12HELOmurni besar50,000
1523/06 11:30PXPTSRS1NOmurni besar50,000
1623/06 11:30KODRI018murni kecil50,000
1723/06 11:29MERCURIA7balak100,000
1823/06 11:29AAAYYYYmurni besar5,000
1923/06 11:28CARNET66murni kecil25,000
2023/06 11:28MYANTO158murni kecil5,000
2123/06 11:28JAN_NUmurni besar50,000
2223/06 11:27MARYANTO70murni besar50,000
2323/06 11:27WANUEKmurni besar50,000
2423/06 11:27IHZARY22murni besar50,000
2523/06 11:27ALUMPAS001murni enam3,333,000
2623/06 11:27AGENT88556murni besar50,000
2723/06 11:26TBI86murni besar25,000
2823/06 11:26KIMONG99murni kecil50,000
2923/06 11:26ADI__26murni kecil50,000
3023/06 11:25EYK2RMP026balak50,000
3123/06 11:25AMA0002murni besar50,000
3223/06 11:25BA679A09murni besar5,000
3323/06 11:25CIUSANG88murni besar5,000
3423/06 11:24IBRO72murni besar50,000
3523/06 11:23KLIV7murni kecil50,000
3623/06 11:23HERYAVRIANmurni kecil5,000
3723/06 11:23H3NH3N94murni besar5,000
3823/06 11:22MAYZADAmurni besar50,000
3923/06 11:22KIPETONG23murni besar25,000
4023/06 11:20LAWAZ01murni kecil50,000
4123/06 11:20JAHIR0707murni kecil5,000
4223/06 11:20UM1BENDAHAmurni besar50,000
4323/06 11:20ASEB77balak10,000
4423/06 11:19ZR321murni kecil5,000
4523/06 11:19DM93753balak100,000
4623/06 11:18LUKI378murni kecil5,000
4723/06 11:18SARIMON8balak50,000
4823/06 11:18KALARANU37murni kecil50,000
4923/06 11:17CUTZZZmurni kecil5,000
5023/06 11:17IBRO72murni kecil50,000

Ceme Multi Jackpot System

Jackpot dilihat dari gabungan kartu pemain dengan kartu bandar. Bandar harus membeli jackpot sebanyak jumlah player yang sedang duduk. Sebagai contoh bila terdapat 3 pemain duduk bermain, dan bandar memutuskan untuk membeli jackpot Rp 1.000, maka pada periode tersebut bandar akan membeli jackpot sebanyak 3xRp1.000 = Rp3.000.

Jackpot bukanlah suatu keharusan untuk dibeli, namun kami memberikan suatu fitur tambahan untuk member tercinta dari www.nuansapoker.com.

Terdapat tiga pilihan harga jackpot yang bisa anda beli yaitu :100,500 dan 1000 rupiah.

Hadiah dari Multi jackpot system www.nuansapoker.com

  1. Murni Kecil x 50 harga jackpot yang anda beli.
      (contoh:anda membeli 1000 maka:1000 X 50 = 50.000)
  2. Murni Besar x 50 harga jackpot yang anda beli
      (contoh:anda membeli 1000 maka:1000 X 50 = 50.000)
  3. BALAK x 200 harga jackpot yang anda beli
      (contoh:anda membeli 1000 maka:1000 X 200 = 200.000)
  4. ENAM DEWA x 6666 harga jackpot yang anda beli
      (contoh:anda membeli 1000 maka:1000 X 6666 = 6.666.000)

Demikian adalah penjelasan dari Multi Jackpot www.nuansapoker.com terima kasih dan selamat bermain salam hoki dari kami

Ceme Jackpot Winner

TOP ENAM DEWA
No.TanggalNamaPriceWin
123/06 11:25PLEWWEKmurni enam6,666,000
223/06 11:25BP886396murni enam6,666,000
323/06 11:24KUKUMmurni enam6,666,000
423/06 11:04RODEK81murni enam3,333,000
523/06 11:04LEKBOIM99murni enam3,333,000
TOP BALAK
No.TanggalNamaPriceWin
123/06 11:35DWBTOE64balak100,000
223/06 11:34KELAKON89balak100,000
323/06 11:33ICHIYUbalak200,000
423/06 11:32GOKU599balak100,000
523/06 11:32SAMPEU1313balak20,000
LATEST JACKPOT
No.TanggalNamaPriceWin
123/06 11:36VIX2013murni besar50,000
223/06 11:36SANARTAmurni besar50,000
323/06 11:36SAPU9murni besar5,000
423/06 11:36SPEED88624murni besar50,000
523/06 11:36INDRA056murni besar50,000
623/06 11:36AGH0ATRIPVmurni besar25,000
723/06 11:36TAI070murni kecil50,000
823/06 11:36BRAYEN3murni kecil50,000
923/06 11:36YOGI72murni kecil25,000
1023/06 11:36NOVAPWmurni besar50,000
1123/06 11:36NGANTUX20murni besar5,000
1223/06 11:35WAWANS74murni besar5,000
1323/06 11:35RG123AHZ1murni besar50,000
1423/06 11:35PINDU08murni besar25,000
1523/06 11:35C4E021AFmurni kecil25,000
1623/06 11:35CIPRAT77murni kecil25,000
1723/06 11:35BGB420murni kecil5,000
1823/06 11:35VMGNFBZZRRmurni kecil5,000
1923/06 11:35DWBTOE64balak100,000
2023/06 11:35ADDITYAmurni kecil5,000
2123/06 11:35SAKANASAUMmurni kecil25,000
2223/06 11:35JOKER1333murni kecil50,000
2323/06 11:35B90FE64Emurni kecil50,000
2423/06 11:35CINGKURmurni besar50,000
2523/06 11:34XELMBUTmurni kecil50,000
2623/06 11:34ZUVRIADYmurni besar50,000
2723/06 11:34KELAKON89balak100,000
2823/06 11:34SOPOAQ15murni besar25,000
2923/06 11:34MBOISBOSmurni kecil50,000
3023/06 11:33NOVAPWmurni besar50,000
3123/06 11:33NGANTUX20murni besar5,000
3223/06 11:33ICHIYUbalak200,000
3323/06 11:33SADDAM_28murni besar25,000
3423/06 11:33SOME55murni kecil25,000
3523/06 11:33VJ3murni besar5,000
3623/06 11:33ASTER107murni kecil25,000
3723/06 11:32JUDII97murni kecil25,000
3823/06 11:32AMPUNBOS02murni kecil5,000
3923/06 11:32PERCIL432murni kecil50,000
4023/06 11:32ORALITE_SFmurni kecil50,000
4123/06 11:32SERANG340murni kecil50,000
4223/06 11:32MCA301343murni besar5,000
4323/06 11:32JUB8787murni besar50,000
4423/06 11:32GOKU599balak100,000
4523/06 11:32SITA1011murni kecil5,000
4623/06 11:32IKLAL012murni kecil50,000
4723/06 11:32ALEXRED88murni kecil50,000
4823/06 11:32SAKTI57murni besar50,000
4923/06 11:32SAMPEU1313balak20,000
5023/06 11:32JAJIT86murni besar25,000